• In Uzbekistan
  • List of Countries
  • For 7 days
  • Water Temperature
  • Satellite Maps
  • Weather Map
  • Weather Widgets
  • user-avatar
    Login

    Hourly Weather Itkuli

    Today, 16 July, Monday

    Time Temperature Precipitation Wind Pressure Humidity
    00:00 +19°C° 0 mm 3 mps 742 mmHg 87%
    01:00 +18°C° 0 mm 3 mps 742 mmHg 89%
    02:00 +18°C° 0 mm 3 mps 743 mmHg 90%
    03:00 +17°C° 0 mm 2 mps 743 mmHg 92%
    04:00 +18°C° 0 mm 3 mps 743 mmHg 95%
    05:00 +19°C° 0 mm 3 mps 743 mmHg 91%
    06:00 +21°C° 0 mm 3 mps 743 mmHg 86%
    07:00 +22°C° 0 mm 3 mps 743 mmHg 82%
    08:00 +24°C° 0 mm 3 mps 743 mmHg 76%
    09:00 +26°C° 0 mm 3 mps 743 mmHg 69%
    10:00 +27°C° 0 mm 3 mps 743 mmHg 62%
    11:00 +28°C° 0 mm 3 mps 743 mmHg 60%
    12:00 +28°C° 0 mm 2 mps 743 mmHg 57%
    13:00 +29°C° 0 mm 2 mps 743 mmHg 55%
    14:00 +29°C° 0 mm 2 mps 743 mmHg 55%
    15:00 +29°C° 0 mm 2 mps 743 mmHg 54%
    16:00 +29°C° 0 mm 2 mps 743 mmHg 54%
    17:00 +28°C° 0 mm 2 mps 743 mmHg 60%
    18:00 +28°C° 0 mm 1 mps 743 mmHg 65%
    19:00 +27°C° 0 mm 1 mps 743 mmHg 71%
    20:00 +25°C° 0 mm 2 mps 743 mmHg 74%
    21:00 +23°C° 0 mm 2 mps 743 mmHg 78%
    22:00 +21°C° 0 mm 2 mps 743 mmHg 82%
    23:00 +20°C° 0 mm 2 mps 743 mmHg 83%

    Tomorrow, 17 July, Tuesday

    Time Temperature Precipitation Wind Pressure Humidity
    00:00 +19°C° 0 mm 2 mps 743 mmHg 85%
    01:00 +19°C° 0 mm 2 mps 743 mmHg 86%
    02:00 +18°C° 0 mm 2 mps 743 mmHg 87%
    03:00 +17°C° 0 mm 2 mps 743 mmHg 88%
    04:00 +17°C° 0 mm 2 mps 743 mmHg 89%
    05:00 +18°C° 0 mm 2 mps 743 mmHg 86%
    06:00 +19°C° 0 mm 2 mps 743 mmHg 82%
    07:00 +20°C° 0 mm 2 mps 743 mmHg 79%
    08:00 +23°C° 0 mm 2 mps 743 mmHg 73%
    09:00 +24°C° 0 mm 2 mps 743 mmHg 66%
    10:00 +26°C° 0 mm 2 mps 743 mmHg 60%
    11:00 +26°C° 0 mm 2 mps 743 mmHg 57%
    12:00 +27°C° 0 mm 2 mps 743 mmHg 54%
    13:00 +28°C° 0 mm 2 mps 742 mmHg 51%
    14:00 +28°C° 0 mm 2 mps 742 mmHg 55%
    15:00 +27°C° 0 mm 2 mps 742 mmHg 58%
    16:00 +27°C° 0 mm 2 mps 742 mmHg 62%
    17:00 +26°C° 0 mm 2 mps 742 mmHg 66%
    18:00 +25°C° 0 mm 1 mps 742 mmHg 70%
    19:00 +24°C° 0 mm 1 mps 741 mmHg 74%
    20:00 +24°C° 0 mm 2 mps 741 mmHg 74%
    21:00 +23°C° 0 mm 2 mps 741 mmHg 74%
    22:00 +21°C° 0 mm 3 mps 742 mmHg 75%
    23:00 +21°C° 0.1 mm 2 mps 741 mmHg 78%

    Day after tomorrow, 18 July, Wednesday

    Time Temperature Precipitation Wind Pressure Humidity
    00:00 +20°C° 0.1 mm 2 mps 741 mmHg 82%
    01:00 +20°C° 0.1 mm 2 mps 741 mmHg 86%
    02:00 +20°C° 0.7 mm 2 mps 741 mmHg 89%
    03:00 +19°C° 0.7 mm 2 mps 741 mmHg 92%
    04:00 +19°C° 0.7 mm 2 mps 741 mmHg 95%
    05:00 +19°C° 0.7 mm 2 mps 741 mmHg 95%
    06:00 +19°C° 0.7 mm 3 mps 741 mmHg 94%
    07:00 +19°C° 0.7 mm 3 mps 741 mmHg 94%
    08:00 +20°C° 0 mm 4 mps 741 mmHg 88%
    09:00 +22°C° 0 mm 4 mps 741 mmHg 83%
    10:00 +23°C° 0 mm 4 mps 741 mmHg 77%
    11:00 +25°C° 0 mm 4 mps 741 mmHg 72%
    12:00 +26°C° 0 mm 4 mps 741 mmHg 67%
    13:00 +27°C° 0 mm 4 mps 741 mmHg 62%
    14:00 +28°C° 0.2 mm 4 mps 741 mmHg 62%
    15:00 +28°C° 0.2 mm 4 mps 741 mmHg 63%
    16:00 +28°C° 0.2 mm 3 mps 741 mmHg 63%
    17:00 +27°C° 0.4 mm 3 mps 741 mmHg 69%
    18:00 +26°C° 0.4 mm 3 mps 741 mmHg 74%
    19:00 +25°C° 0.4 mm 3 mps 741 mmHg 80%
    20:00 +24°C° 0.2 mm 3 mps 741 mmHg 84%
    21:00 +21°C° 0.2 mm 3 mps 741 mmHg 87%
    22:00 +20°C° 0.2 mm 3 mps 741 mmHg 91%
    23:00 +20°C° 0.4 mm 3 mps 741 mmHg 93%

    19 July, Thursday

    Time Temperature Precipitation Wind Pressure Humidity
    00:00 +19°C° 0.4 mm 3 mps 741 mmHg 94%
    01:00 +18°C° 0.4 mm 2 mps 741 mmHg 96%
    02:00 +18°C° 0.6 mm 2 mps 741 mmHg 96%
    03:00 +18°C° 0.6 mm 2 mps 741 mmHg 96%
    04:00 +18°C° 0.6 mm 2 mps 742 mmHg 96%
    05:00 +19°C° 0.1 mm 3 mps 742 mmHg 95%
    06:00 +19°C° 0.1 mm 3 mps 742 mmHg 93%
    07:00 +20°C° 0.1 mm 3 mps 742 mmHg 92%
    08:00 +22°C° 0 mm 3 mps 742 mmHg 85%
    09:00 +24°C° 0 mm 3 mps 742 mmHg 79%
    10:00 +25°C° 0 mm 2 mps 742 mmHg 72%
    11:00 +26°C° 0 mm 2 mps 742 mmHg 69%
    12:00 +27°C° 0 mm 2 mps 742 mmHg 65%
    13:00 +28°C° 0 mm 2 mps 742 mmHg 61%
    14:00 +28°C° 0.2 mm 3 mps 742 mmHg 65%
    15:00 +27°C° 0.2 mm 3 mps 742 mmHg 68%
    16:00 +27°C° 0.2 mm 3 mps 742 mmHg 71%
    17:00 +26°C° 0.4 mm 3 mps 742 mmHg 77%
    18:00 +25°C° 0.4 mm 3 mps 742 mmHg 82%
    19:00 +24°C° 0.4 mm 3 mps 742 mmHg 87%
    20:00 +21°C° 0 mm 3 mps 742 mmHg 90%
    21:00 +20°C° 0 mm 3 mps 742 mmHg 92%
    22:00 +19°C° 0 mm 3 mps 742 mmHg 95%
    23:00 +18°C° 0 mm 3 mps 742 mmHg 95%

    20 July, Friday

    Time Temperature Precipitation Wind Pressure Humidity
    00:00 +18°C° 0 mm 3 mps 742 mmHg 95%
    01:00 +17°C° 0 mm 3 mps 742 mmHg 95%
    02:00 +17°C° 0 mm 3 mps 742 mmHg 95%
    03:00 +17°C° 0 mm 3 mps 742 mmHg 95%
    04:00 +17°C° 0 mm 3 mps 743 mmHg 95%
    05:00 +18°C° 0 mm 3 mps 743 mmHg 93%
    06:00 +18°C° 0 mm 3 mps 743 mmHg 91%
    07:00 +19°C° 0 mm 4 mps 743 mmHg 88%
    08:00 +21°C° 0 mm 4 mps 743 mmHg 83%
    09:00 +22°C° 0 mm 4 mps 743 mmHg 78%
    10:00 +25°C° 0 mm 4 mps 743 mmHg 73%
    11:00 +25°C° 0.3 mm 4 mps 743 mmHg 70%
    12:00 +26°C° 0.3 mm 4 mps 743 mmHg 68%
    13:00 +27°C° 0.3 mm 4 mps 743 mmHg 65%
    14:00 +27°C° 0.3 mm 4 mps 743 mmHg 66%
    15:00 +27°C° 0.3 mm 4 mps 743 mmHg 67%
    16:00 +27°C° 0.3 mm 4 mps 743 mmHg 68%
    17:00 +26°C° 0.3 mm 3 mps 743 mmHg 72%
    18:00 +25°C° 0.3 mm 3 mps 743 mmHg 76%
    19:00 +24°C° 0.3 mm 3 mps 743 mmHg 81%
    20:00 +22°C° 0 mm 3 mps 743 mmHg 83%
    21:00 +21°C° 0 mm 3 mps 743 mmHg 85%
    22:00 +20°C° 0 mm 3 mps 743 mmHg 88%
    23:00 +19°C° 0 mm 3 mps 743 mmHg 87%

    21 July, Saturday

    Time Temperature Precipitation Wind Pressure Humidity
    00:00 +19°C° 0 mm 4 mps 744 mmHg 87%
    01:00 +19°C° 0 mm 4 mps 744 mmHg 86%
    02:00 +18°C° 0 mm 4 mps 744 mmHg 85%
    03:00 +18°C° 0 mm 4 mps 744 mmHg 84%
    04:00 +17°C° 0 mm 4 mps 744 mmHg 82%
    05:00 +18°C° 0 mm 4 mps 745 mmHg 79%
    06:00 +19°C° 0 mm 4 mps 745 mmHg 77%
    07:00 +19°C° 0 mm 4 mps 745 mmHg 74%
    08:00 +21°C° 0 mm 5 mps 745 mmHg 68%
    09:00 +22°C° 0 mm 5 mps 745 mmHg 62%
    10:00 +25°C° 0 mm 5 mps 745 mmHg 56%
    11:00 +25°C° 0 mm 5 mps 745 mmHg 54%
    12:00 +26°C° 0 mm 5 mps 745 mmHg 52%
    13:00 +27°C° 0 mm 6 mps 745 mmHg 50%
    14:00 +27°C° 0 mm 5 mps 745 mmHg 51%
    15:00 +27°C° 0 mm 5 mps 745 mmHg 52%
    16:00 +27°C° 0 mm 5 mps 745 mmHg 53%
    17:00 +26°C° 0 mm 4 mps 746 mmHg 58%
    18:00 +23°C° 0 mm 4 mps 746 mmHg 63%
    19:00 +22°C° 0 mm 4 mps 746 mmHg 68%
    20:00 +21°C° 0 mm 4 mps 746 mmHg 69%
    21:00 +20°C° 0 mm 4 mps 746 mmHg 70%
    22:00 +19°C° 0 mm 4 mps 747 mmHg 70%
    23:00 +18°C° 0 mm 4 mps 747 mmHg 73%
    Show more